Location: Gajan
(43.0218°N, 1.1244°E)
Time: 15:05:45
(UTC+00:00)

Terra - Pass Details

Date: 22 April 2021
Orbit: 701 x 703 km, 98.2° (Epoch: 13 May)

Event Time Altitude Azimuth Distance (km) Brightness Sun altitude
Exits shadow 21:03:51 30° 68° (ENE) 1,249 2.9 -22.2°
Maximum altitude 21:03:54 30° 67° (ENE) 1,249 2.9 -22.2°
Drops below altitude 10° 21:08:02 10° 7° (N) 2,179 4.8 -22.8°
Sets 21:10:30 0° 357° (N) 3,101 5.9 -23.1°
